DB5ZQ Weather Reports


time (UTC)temp
C
wind
direction
speed
KPH
gust
KPH
rain 1hr
cm
rain 24hr
cm
rain mn
cm
humidity
%
barometer
mb
20260902164000 27 43 0.0 11.3 0.00 0.00 0.00 33 1016.1
20260902163459 27 310 1.6 4.8 0.00 0.00 0.00 32 1016.0
20260902162959 28 67 0.0 12.9 0.00 0.00 0.00 31 1016.1
20260902162459 28 161 1.6 11.3 0.00 0.00 0.00 31 1016.1
20260902161958 28 113 3.2 8.0 0.00 0.00 0.00 32 1016.0
20260902161458 28 90 1.6 11.3 0.00 0.00 0.00 32 1016.0
20260902160958 28 101 9.7 14.5 0.00 0.00 0.00 31 1016.0
20260902160458 28 67 0.0 9.7 0.00 0.00 0.00 30 1015.9
20260902155957 28 1 1.6 9.7 0.00 0.00 0.00 29 1016.0
20260902155457 28 158 0.0 6.4 0.00 0.00 0.00 30 1015.9
20260902154957 28 43 0.0 11.3 0.00 0.00 0.00 31 1016.0
20260902154456 27 122 3.2 6.4 0.00 0.00 0.00 32 1016.0
20260902153956 27 123 1.6 4.8 0.00 0.00 0.00 32 1015.9
20260902153456 27 23 0.0 4.8 0.00 0.00 0.00 31 1015.9
20260902152956 28 61 0.0 9.7 0.00 0.00 0.00 31 1015.9
20260902152455 28 66 6.4 9.7 0.00 0.00 0.00 30 1016.0
20260902151955 27 272 1.6 14.5 0.00 0.00 0.00 31 1016.1
20260902151455 28 92 3.2 14.5 0.00 0.00 0.00 30 1016.1
20260902150954 28 105 11.3 11.3 0.00 0.00 0.00 28 1016.1
20260902150454 27 88 0.0 9.7 0.00 0.00 0.00 28 1016.2
20260902145954 27 75 3.2 14.5 0.00 0.00 0.00 27 1016.2
20260902145454 28 146 6.4 12.9 0.00 0.00 0.00 27 1016.2
20260902144953 27 275 1.6 12.9 0.00 0.00 0.00 29 1016.2
20260902144453 27 63 3.2 11.3 0.00 0.00 0.00 31 1016.2
20260902143953 27 106 1.6 8.0 0.00 0.00 0.00 32 1016.1
20260902143452 27 358 3.2 12.9 0.00 0.00 0.00 31 1016.1
20260902142952 27 292 6.4 20.9 0.00 0.00 0.00 31 1016.1
20260902142452 28 77 4.8 11.3 0.00 0.00 0.00 30 1016.1
20260902141952 28 340 9.7 14.5 0.00 0.00 0.00 30 1015.9
20260902141451 28 143 3.2 9.7 0.00 0.00 0.00 31 1016.0
20260902140951 27 112 3.2 9.7 0.00 0.00 0.00 33 1016.0
20260902140451 27 95 3.2 12.9 0.00 0.00 0.00 33 1016.0
20260902135950 26 82 6.4 16.1 0.00 0.00 0.00 33 1016.1
20260902135450 27 66 3.2 11.3 0.00 0.00 0.00 34 1015.9
20260902134950 26 275 1.6 14.5 0.00 0.00 0.00 34 1016.1
20260902134450 27 358 6.4 12.9 0.00 0.00 0.00 34 1016.1
20260902133949 27 322 3.2 14.5 0.00 0.00 0.00 34 1016.1
20260902133449 27 151 3.2 14.5 0.00 0.00 0.00 33 1016.1
20260902132949 27 172 0.0 14.5 0.00 0.00 0.00 32 1016.1
20260902132448 28 116 4.8 20.9 0.00 0.00 0.00 32 1016.1
20260902131948 28 293 0.0 11.3 0.00 0.00 0.00 32 1016.0
20260902131448 28 36 1.6 14.5 0.00 0.00 0.00 33 1016.1
20260902130948 28 111 3.2 16.1 0.00 0.00 0.00 31 1016.2
20260902130447 28 340 1.6 11.3 0.00 0.00 0.00 31 1016.1
20260902125947 28 146 0.0 11.3 0.00 0.00 0.00 32 1016.1
20260902125447 28 113 3.2 19.3 0.00 0.00 0.00 33 1016.2
20260902124946 28 153 6.4 16.1 0.00 0.00 0.00 33 1016.2
20260902124446 27 4 1.6 12.9 0.00 0.00 0.00 33 1016.2
20260902123946 28 101 9.7 17.7 0.00 0.00 0.00 33 1016.2
20260902123446 28 73 11.3 12.9 0.00 0.00 0.00 32 1016.2
20260902122945 28 303 6.4 8.0 0.00 0.00 0.00 35 1016.3
20260902122445 27 1 3.2 16.1 0.00 0.00 0.00 37 1016.3
20260902121945 27 126 1.6 16.1 0.00 0.00 0.00 37 1016.3
20260902121445 26 22 0.0 8.0 0.00 0.00 0.00 40 1016.3
20260902120945 26 91 4.8 11.3 0.00 0.00 0.00 40 1016.5
20260902120444 27 156 6.4 14.5 0.00 0.00 0.00 39 1016.5
20260902115944 27 78 4.8 11.3 0.00 0.00 0.00 37 1016.6
20260902115443 27 25 4.8 11.3 0.00 0.00 0.00 38 1016.6
20260902114943 26 91 8.0 8.0 0.00 0.00 0.00 38 1016.5
20260902114443 26 16 3.2 11.3 0.00 0.00 0.00 42 1016.5
20260902113943 25 78 0.0 12.9 0.00 0.00 0.00 43 1016.5
20260902113442 25 45 1.6 11.3 0.00 0.00 0.00 43 1016.6
20260902112942 25 284 0.0 12.9 0.00 0.00 0.00 43 1016.6
20260902112442 25 319 1.6 9.7 0.00 0.00 0.00 43 1016.6
20260902111941 25 115 4.8 12.9 0.00 0.00 0.00 44 1016.7
20260902111441 25 329 3.2 12.9 0.00 0.00 0.00 44 1016.7
20260902110941 25 37 0.0 17.7 0.00 0.00 0.00 44 1016.6
20260902110441 26 14 1.6 12.9 0.00 0.00 0.00 43 1016.7
20260902105940 26 57 1.6 12.9 0.00 0.00 0.00 43 1016.7
20260902105440 26 28 1.6 9.7 0.00 0.00 0.00 43 1016.7
20260902104940 25 111 1.6 8.0 0.00 0.00 0.00 45 1016.8
20260902104439 25 47 6.4 9.7 0.00 0.00 0.00 45 1016.9
20260902103939 25 261 4.8 8.0 0.00 0.00 0.00 48 1016.9
20260902103439 24 331 1.6 8.0 0.00 0.00 0.00 49 1017.0
20260902102939 24 45 0.0 9.7 0.00 0.00 0.00 49 1017.0
20260902102438 24 282 1.6 6.4 0.00 0.00 0.00 49 1017.1
20260902101938 24 149 0.0 6.4 0.00 0.00 0.00 51 1017.1
20260902101438 23 91 1.6 6.4 0.00 0.00 0.00 53 1017.1
20260902100937 23 198 0.0 3.2 0.00 0.00 0.00 54 1017.2
20260902100437 23 350 0.0 6.4 0.00 0.00 0.00 55 1017.2
20260902095937 22 310 3.2 9.7 0.00 0.00 0.00 55 1017.2
20260902095437 22 298 1.6 6.4 0.00 0.00 0.00 57 1017.2
20260902094936 22 45 1.6 6.4 0.00 0.00 0.00 59 1017.3
20260902094436 22 319 1.6 9.7 0.00 0.00 0.00 60 1017.3
20260902093936 21 25 3.2 4.8 0.00 0.00 0.00 61 1017.3
20260902093435 22 82 3.2 4.8 0.00 0.00 0.00 60 1017.2
20260902092935 21 90 1.6 6.4 0.00 0.00 0.00 59 1017.3
20260902092435 21 42 0.0 3.2 0.00 0.00 0.00 62 1017.3
20260902091935 21 99 0.0 6.4 0.00 0.00 0.00 61 1017.3
20260902091434 21 303 1.6 4.8 0.00 0.00 0.00 63 1017.3
20260902090934 21 108 0.0 8.0 0.00 0.00 0.00 63 1017.4
20260902090434 21 50 0.0 6.4 0.00 0.00 0.00 64 1017.4
20260902085933 21 337 4.8 4.8 0.00 0.00 0.00 64 1017.4
20260902085433 20 18 0.0 3.2 0.00 0.00 0.00 66 1017.4
20260902084933 20 352 1.6 4.8 0.00 0.00 0.00 67 1017.6
20260902084433 20 270 0.0 3.2 0.00 0.00 0.00 67 1017.5
20260902083932 20 59 0.0 3.2 0.00 0.00 0.00 67 1017.5
20260902083432 20 268 0.0 4.8 0.00 0.00 0.00 67 1017.5
20260902082932 20 120 1.6 4.8 0.00 0.00 0.00 67 1017.6
20260902082431 20 119 0.0 3.2 0.00 0.00 0.00 67 1017.5
20260902081931 20 59 0.0 3.2 0.00 0.00 0.00 67 1017.5
20260902081431 20 206 0.0 3.2 0.00 0.00 0.00 68 1017.5
20260902080931 20 78 0.0 0.0 0.00 0.00 0.00 69 1017.5
20260902080430 20 78 0.0 0.0 0.00 0.00 0.00 69 1017.4
20260902075930 19 78 0.0 1.6 0.00 0.00 0.00 70 1017.3
20260902075430 19 212 0.0 0.0 0.00 0.00 0.00 69 1017.3
20260902074930 19 212 0.0 0.0 0.00 0.00 0.00 69 1017.3
20260902074429 19 212 0.0 0.0 0.00 0.00 0.00 70 1017.3
20260902073929 19 212 0.0 0.0 0.00 0.00 0.00 70 1017.3
20260902073429 19 212 0.0 0.0 0.00 0.00 0.00 70 1017.4
20260902072928 19 212 0.0 0.0 0.00 0.00 0.00 70 1017.4
20260902072428 19 212 0.0 1.6 0.00 0.00 0.00 71 1017.2
20260902071928 18 219 0.0 0.0 0.00 0.00 0.00 72 1017.2
20260902071427 18 326 0.0 1.6 0.00 0.00 0.00 72 1017.2
20260902070927 18 118 0.0 0.0 0.00 0.00 0.00 73 1017.2
20260902070427 18 118 0.0 0.0 0.00 0.00 0.00 74 1017.2
20260902065927 18 118 0.0 3.2 0.00 0.00 0.00 74 1017.1
20260902065426 17 78 0.0 3.2 0.00 0.00 0.00 74 1017.0
20260902064926 18 63 0.0 0.0 0.00 0.00 0.00 74 1016.9
20260902064426 17 63 0.0 0.0 0.00 0.00 0.00 75 1016.9
20260902063926 17 63 0.0 0.0 0.00 0.00 0.00 75 1016.9
20260902063425 17 63 0.0 0.0 0.00 0.00 0.00 75 1016.9
20260902062925 17 63 0.0 0.0 0.00 0.00 0.00 76 1017.1
20260902062425 17 63 0.0 0.0 0.00 0.00 0.00 76 1017.1
20260902061924 17 63 0.0 0.0 0.00 0.00 0.00 76 1017.1
20260902061424 17 63 0.0 0.0 0.00 0.00 0.00 76 1017.1
20260902060924 17 63 0.0 0.0 0.00 0.00 0.00 76 1017.1
20260902060424 17 63 0.0 0.0 0.00 0.00 0.00 76 1017.2
20260902055923 17 63 0.0 0.0 0.00 0.00 0.00 77 1017.2
20260902055423 17 63 0.0 0.0 0.00 0.00 0.00 77 1017.0
20260902054923 17 63 0.0 0.0 0.00 0.00 0.00 77 1017.0
20260902054423 17 63 0.0 0.0 0.00 0.00 0.00 77 1016.9
20260902053922 16 63 0.0 0.0 0.00 0.00 0.00 77 1016.9
20260902053422 16 63 0.0 0.0 0.00 0.00 0.00 77 1017.1
20260902052922 16 63 0.0 0.0 0.00 0.00 0.00 77 1017.1
20260902052421 16 63 0.0 0.0 0.00 0.00 0.00 78 1017.1
20260902051921 16 63 0.0 0.0 0.00 0.00 0.00 78 1017.1
20260902051421 16 63 0.0 0.0 0.00 0.00 0.00 78 1017.1
20260902050920 16 63 0.0 0.0 0.00 0.00 0.00 78 1017.0
20260902050420 16 63 0.0 0.0 0.00 0.00 0.00 78 1017.0
20260902045920 16 63 0.0 0.0 0.00 0.00 0.00 78 1017.0
20260902045420 16 63 0.0 0.0 0.00 0.00 0.00 78 1016.9
20260902044919 16 63 0.0 0.0 0.00 0.00 0.00 78 1016.8
20260902044419 16 63 0.0 0.0 0.00 0.00 0.00 78 1016.7
20260902043919 16 63 0.0 0.0 0.00 0.00 0.00 78 1016.7
20260902043418 16 63 0.0 0.0 0.00 0.00 0.00 77 1016.6
20260902042918 16 63 0.0 0.0 0.00 0.00 0.00 77 1016.9
20260902042418 16 63 0.0 0.0 0.00 0.00 0.00 77 1016.9
20260902041918 16 63 0.0 0.0 0.00 0.00 0.00 77 1016.9
20260902041417 16 63 0.0 0.0 0.00 0.00 0.00 77 1016.9
20260902040917 16 63 0.0 0.0 0.00 0.00 0.00 76 1017.0
20260902040417 16 63 0.0 0.0 0.00 0.00 0.00 76 1017.0
20260902035916 16 63 0.0 0.0 0.00 0.00 0.00 76 1016.9
20260902035416 16 63 0.0 0.0 0.00 0.00 0.00 76 1017.0
20260902034916 16 63 0.0 0.0 0.00 0.00 0.00 76 1016.9
20260902034416 16 63 0.0 0.0 0.00 0.00 0.00 76 1017.0
20260902033915 16 63 0.0 0.0 0.00 0.00 0.00 76 1017.0
20260902033415 16 63 0.0 0.0 0.00 0.00 0.00 76 1017.0
20260902032915 16 63 0.0 0.0 0.00 0.00 0.00 76 1017.0
20260902032414 16 63 0.0 0.0 0.00 0.00 0.00 76 1016.9
20260902031914 16 63 0.0 0.0 0.00 0.00 0.00 76 1016.9
20260902031414 16 63 0.0 0.0 0.00 0.00 0.00 76 1017.0
20260902030914 17 63 0.0 0.0 0.00 0.00 0.00 75 1016.9
20260902030413 16 63 0.0 0.0 0.00 0.00 0.00 75 1017.0
20260902025913 17 63 0.0 0.0 0.00 0.00 0.00 75 1017.0
20260902025413 16 63 0.0 0.0 0.00 0.00 0.00 75 1016.9
20260902024912 16 63 0.0 0.0 0.00 0.00 0.00 75 1017.1
20260902024412 16 63 0.0 0.0 0.00 0.00 0.00 75 1017.1
20260902023912 16 63 0.0 0.0 0.00 0.00 0.00 75 1017.0
20260902023412 17 63 0.0 0.0 0.00 0.00 0.00 75 1017.1
20260902022911 17 63 0.0 0.0 0.00 0.00 0.00 74 1017.2
20260902022411 17 63 0.0 0.0 0.00 0.00 0.00 74 1017.1
20260902021911 17 63 0.0 0.0 0.00 0.00 0.00 74 1017.0
20260902021410 17 63 0.0 0.0 0.00 0.00 0.00 74 1017.0
20260902020910 17 63 0.0 0.0 0.00 0.00 0.00 74 1017.0
20260902020410 17 63 0.0 0.0 0.00 0.00 0.00 74 1017.0
20260902015910 17 63 0.0 0.0 0.00 0.00 0.00 74 1017.0
20260902015409 17 63 0.0 0.0 0.00 0.00 0.00 73 1017.0
20260902014909 17 63 0.0 0.0 0.00 0.00 0.00 73 1017.0
20260902014409 17 63 0.0 0.0 0.00 0.00 0.00 73 1017.1
20260902013908 17 63 0.0 0.0 0.00 0.00 0.00 73 1017.1
20260902013408 17 63 0.0 0.0 0.00 0.00 0.00 73 1017.1
20260902012908 17 63 0.0 0.0 0.00 0.00 0.00 73 1017.1
20260902012408 17 63 0.0 0.0 0.00 0.00 0.00 73 1017.1
20260902011907 17 63 0.0 0.0 0.00 0.00 0.00 73 1017.0
20260902011407 17 63 0.0 0.0 0.00 0.00 0.00 73 1017.0
20260902010907 17 63 0.0 0.0 0.00 0.00 0.00 72 1017.0
20260902010407 17 63 0.0 0.0 0.00 0.00 0.00 72 1017.1
20260902005906 17 63 0.0 0.0 0.00 0.00 0.00 72 1017.1
20260902005406 17 71 0.0 0.0 0.00 0.00 0.00 72 1017.2
20260902004906 17 71 0.0 0.0 0.00 0.00 0.00 72 1017.1
20260902004405 17 71 0.0 0.0 0.00 0.00 0.00 72 1017.1
20260902003905 18 71 0.0 0.0 0.00 0.00 0.00 72 1017.1
20260902003405 18 71 0.0 1.6 0.00 0.00 0.00 71 1017.1
20260902002905 18 109 0.0 1.6 0.00 0.00 0.00 71 1017.2
20260902002404 18 192 0.0 0.0 0.00 0.00 0.00 71 1017.3
20260902001904 18 192 0.0 0.0 0.00 0.00 0.00 71 1017.3
20260902001404 18 192 0.0 0.0 0.00 0.00 0.00 71 1017.4
20260902000903 18 192 0.0 0.0 0.00 0.00 0.00 71 1017.5
20260902000403 18 192 0.0 0.0 0.00 0.00 0.00 71 1017.5
20260901235903 18 192 0.0 0.0 0.00 0.00 0.00 71 1017.5
20260901235403 18 192 0.0 0.0 0.00 0.00 0.00 71 1017.6
20260901234902 18 192 0.0 0.0 0.00 0.00 0.00 71 1017.5
20260901234402 18 192 0.0 0.0 0.00 0.00 0.00 71 1017.5
20260901233902 18 192 0.0 0.0 0.00 0.00 0.00 71 1017.5
20260901233401 18 192 0.0 0.0 0.00 0.00 0.00 70 1017.5
20260901232901 18 192 0.0 0.0 0.00 0.00 0.00 70 1017.5
20260901232401 18 192 0.0 0.0 0.00 0.00 0.00 70 1017.5
20260901231901 18 192 0.0 0.0 0.00 0.00 0.00 70 1017.5
20260901231400 18 192 0.0 0.0 0.00 0.00 0.00 70 1017.5
20260901230900 18 192 0.0 0.0 0.00 0.00 0.00 70 1017.5
20260901230400 18 192 0.0 0.0 0.00 0.00 0.00 69 1017.5
20260901225859 18 192 0.0 0.0 0.00 0.00 0.00 69 1017.4
20260901225359 19 192 0.0 0.0 0.00 0.00 0.00 69 1017.4
20260901224859 19 192 0.0 0.0 0.00 0.00 0.00 69 1017.5
20260901224359 18 192 0.0 0.0 0.00 0.00 0.00 69 1017.5
20260901223858 18 192 0.0 0.0 0.00 0.00 0.00 68 1017.4
20260901223358 18 192 0.0 0.0 0.00 0.00 0.00 68 1017.4
20260901222858 19 192 0.0 0.0 0.00 0.00 0.00 68 1017.4
20260901222357 19 192 0.0 0.0 0.00 0.00 0.00 68 1017.4
20260901221857 19 192 0.0 0.0 0.00 0.00 0.00 67 1017.4
20260901221357 19 192 0.0 0.0 0.00 0.00 0.00 67 1017.4
20260901220857 20 144 0.0 1.6 0.00 0.00 0.00 67 1017.5
20260901220356 20 47 0.0 0.0 0.00 0.00 0.00 66 1017.4
20260901215856 20 47 0.0 0.0 0.00 0.00 0.00 66 1017.4
20260901215356 20 47 0.0 0.0 0.00 0.00 0.00 66 1017.4
20260901214855 20 47 0.0 0.0 0.00 0.00 0.00 65 1017.3
20260901214355 20 47 0.0 0.0 0.00 0.00 0.00 65 1017.3
20260901213855 20 47 0.0 0.0 0.00 0.00 0.00 64 1017.3
20260901213355 20 47 0.0 0.0 0.00 0.00 0.00 64 1017.2
20260901212854 20 47 0.0 0.0 0.00 0.00 0.00 64 1017.2
20260901212354 20 47 0.0 0.0 0.00 0.00 0.00 63 1017.2
20260901211854 20 47 0.0 0.0 0.00 0.00 0.00 63 1017.1
20260901211353 20 47 0.0 0.0 0.00 0.00 0.00 63 1017.1
20260901210853 20 47 0.0 0.0 0.00 0.00 0.00 62 1017.1
20260901210353 20 47 0.0 0.0 0.00 0.00 0.00 62 1017.1
20260901205853 20 47 0.0 0.0 0.00 0.00 0.00 61 1017.1
20260901205352 21 47 0.0 0.0 0.00 0.00 0.00 61 1017.1
20260901204852 21 47 0.0 0.0 0.00 0.00 0.00 60 1017.2
20260901204352 21 47 0.0 0.0 0.00 0.00 0.00 60 1017.2
20260901203852 21 47 0.0 0.0 0.00 0.00 0.00 60 1017.2
20260901203352 21 47 0.0 0.0 0.00 0.00 0.00 59 1017.1
20260901202851 21 47 0.0 0.0 0.00 0.00 0.00 59 1017.2
20260901202351 21 47 0.0 0.0 0.00 0.00 0.00 59 1017.2
20260901201850 21 47 0.0 0.0 0.00 0.00 0.00 58 1017.2
20260901201350 21 47 0.0 0.0 0.00 0.00 0.00 57 1017.1
20260901200850 21 47 0.0 0.0 0.00 0.00 0.00 56 1017.1
20260901200349 21 47 0.0 0.0 0.00 0.00 0.00 56 1017.1
20260901195849 21 47 0.0 0.0 0.00 0.00 0.00 55 1017.2
20260901195349 22 47 0.0 0.0 0.00 0.00 0.00 54 1017.2
20260901194849 22 47 0.0 0.0 0.00 0.00 0.00 53 1017.1
20260901194348 22 47 0.0 0.0 0.00 0.00 0.00 53 1017.1
20260901193848 22 47 0.0 0.0 0.00 0.00 0.00 51 1017.0
20260901193348 22 47 0.0 0.0 0.00 0.00 0.00 51 1017.0
20260901192848 22 47 0.0 0.0 0.00 0.00 0.00 50 1016.9
20260901192347 22 47 0.0 0.0 0.00 0.00 0.00 49 1016.8
20260901191847 23 47 0.0 0.0 0.00 0.00 0.00 49 1016.8
20260901191347 22 47 0.0 0.0 0.00 0.00 0.00 48 1016.8
20260901190846 23 47 0.0 0.0 0.00 0.00 0.00 47 1016.8
20260901190346 23 47 0.0 0.0 0.00 0.00 0.00 47 1016.8
20260901185846 23 47 0.0 0.0 0.00 0.00 0.00 46 1016.7
20260901185346 23 47 0.0 0.0 0.00 0.00 0.00 46 1016.7
20260901184845 23 47 0.0 0.0 0.00 0.00 0.00 45 1016.6
20260901184345 23 47 0.0 0.0 0.00 0.00 0.00 45 1016.4
20260901183845 23 47 0.0 0.0 0.00 0.00 0.00 44 1016.4
20260901183344 24 47 0.0 0.0 0.00 0.00 0.00 43 1016.3
20260901182844 23 47 0.0 0.0 0.00 0.00 0.00 43 1016.2
20260901182344 23 47 0.0 0.0 0.00 0.00 0.00 42 1016.2
20260901181844 24 47 0.0 0.0 0.00 0.00 0.00 42 1016.2
20260901181343 24 47 0.0 1.6 0.00 0.00 0.00 42 1016.1
20260901180843 24 60 0.0 1.6 0.00 0.00 0.00 41 1016.1
20260901180343 24 32 0.0 0.0 0.00 0.00 0.00 41 1016.1
20260901175842 25 32 0.0 0.0 0.00 0.00 0.00 40 1016.0
20260901175342 25 32 0.0 0.0 0.00 0.00 0.00 40 1016.0
20260901174842 25 32 0.0 0.0 0.00 0.00 0.00 40 1016.0
20260901174342 25 32 0.0 4.8 0.00 0.00 0.00 39 1016.0
20260901173841 25 56 0.0 1.6 0.00 0.00 0.00 39 1016.0
20260901173341 25 42 0.0 6.4 0.00 0.00 0.00 38 1016.1
20260901172841 25 39 0.0 3.2 0.00 0.00 0.00 38 1016.0
20260901172340 25 15 0.0 3.2 0.00 0.00 0.00 37 1016.0
20260901171840 26 85 1.6 4.8 0.00 0.00 0.00 36 1016.0
20260901171340 26 70 0.0 3.2 0.00 0.00 0.00 36 1016.0
20260901170840 26 42 0.0 4.8 0.00 0.00 0.00 35 1016.1
20260901170339 26 94 3.2 9.7 0.00 0.00 0.00 34 1016.0
20260901165839 26 63 0.0 4.8 0.00 0.00 0.00 33 1016.0
20260901165339 27 347 0.0 8.0 0.00 0.00 0.00 33 1016.0
20260901164838 27 50 0.0 8.0 0.00 0.00 0.00 32 1016.0
20260901164338 27 333 0.0 4.8 0.00 0.00 0.00 32 1016.0